Big Rapids, MI

9:57 AM EST on December 07, 2019 (GMT -0500)
Roben-Hood

Weather History for KRQB - September, 2019

Change the Weather History Date:

Sunday, September 15, 2019

  Actual Average Record
Temperature  
Mean Temperature 63 °F -  
Max Temperature 70 °F 69 °F 83 °F (1991)
Min Temperature 56 °F 46 °F 32 °F (1989)
Degree Days  
Heating Degree Days 2    
Growing Degree Days 13 (Base 50)    
Moisture  
Dew Point 61 °F    
Average Humidity 89    
Maximum Humidity 97    
Minimum Humidity 78    
Precipitation  
Precipitation 0.01 in - - ()
Sea Level Pressure  
Sea Level Pressure 30.08 in    
Wind  
Wind Speed 3 mph (SSW)    
Max Wind Speed 13 mph    
Max Gust Speed 20 mph    
Visibility 9 miles    
Events Rain    
Averages and records for this station are not official NWS values.
T = Trace of Precipitation, MM = Missing Value Source: NWS Daily Summary

Daily Weather History Graph

Daily Weather History Graph

Search for Another Location

Airport or City:

Astronomy

Sep. 15, 2019 Rise Set
Actual Time 7:21 AM EDT 7:52 PM EDT
Civil Twilight 6:52 AM EDT 8:21 PM EDT
Nautical Twilight 6:18 AM EDT 8:55 PM EDT
Astronomical Twilight 5:42 AM EDT 9:30 PM EDT
Moon 8:58 PM EDT (9/15) 8:31 AM EDT (9/15)
Length of Visible Light 13h 29m
Length of Day
12h 31m
Full, 98% of the Moon is Illuminated
Sep 15
Full
Sep 21
Last Quarter
Sep 28
New
Oct 5
First Quarter
Oct 13
Full

Hourly Weather History & Observations

Time (EDT) Temp. Dew Point Humidity Pressure Visibility Wind Dir Wind Speed Gust Speed Precip Events Conditions
12:16 AM 56.7 °F 55.4 °F 96% 30.14 in 10.0 mi Calm Calm - N/A   Overcast
12:35 AM 56.7 °F 55.4 °F 96% 30.14 in 10.0 mi Calm Calm - N/A   Mostly Cloudy
12:36 AM 56.5 °F 55.4 °F 96% 30.14 in 10.0 mi Calm Calm - N/A   Mostly Cloudy
12:55 AM 56.8 °F 55.6 °F 96% 30.14 in 10.0 mi Calm Calm - N/A   Mostly Cloudy
1:00 AM 56.5 °F 55.4 °F 96% 30.14 in 10.0 mi Calm Calm - N/A   Overcast
1:17 AM 56.8 °F 55.6 °F 96% 30.15 in 10.0 mi Calm Calm - N/A   Overcast
1:35 AM 57.2 °F 55.8 °F 95% 30.14 in 10.0 mi Calm Calm - N/A   Overcast
1:55 AM 57.2 °F 55.9 °F 96% 30.14 in 10.0 mi Calm Calm - N/A   Mostly Cloudy
1:56 AM 57.2 °F 55.9 °F 96% 30.14 in 10.0 mi Calm Calm - N/A   Mostly Cloudy
2:17 AM 57.6 °F 56.3 °F 96% 30.13 in 10.0 mi Calm Calm - N/A   Mostly Cloudy
2:36 AM 57.6 °F 56.3 °F 96% 30.12 in 10.0 mi Calm Calm - N/A   Overcast
2:55 AM 58.1 °F 56.7 °F 95% 30.13 in 10.0 mi Calm Calm - N/A   Overcast
3:19 AM 58.5 °F 57.0 °F 95% 30.11 in 7.0 mi Calm Calm - 0.01 in Rain Rain
3:36 AM 58.3 °F 57.0 °F 96% 30.10 in 10.0 mi Calm Calm - 0.01 in Rain Light Rain
3:55 AM 58.1 °F 56.8 °F 96% 30.09 in 10.0 mi Calm Calm - 0.01 in   Mostly Cloudy
3:56 AM 58.1 °F 56.8 °F 96% 30.09 in 10.0 mi Calm Calm - 0.01 in   Mostly Cloudy
4:19 AM 58.1 °F 57.2 °F 97% 30.09 in 10.0 mi Calm Calm - N/A   Overcast
4:36 AM 58.1 °F 57.2 °F 97% 30.09 in 10.0 mi Calm Calm - N/A   Overcast
4:55 AM 58.5 °F 57.4 °F 96% 30.09 in 10.0 mi Calm Calm - N/A   Overcast
4:56 AM 58.5 °F 57.4 °F 96% 30.09 in 10.0 mi Calm Calm - N/A   Overcast
5:15 AM 58.6 °F 57.7 °F 97% 30.09 in 10.0 mi Calm Calm - N/A   Overcast
5:19 AM 58.6 °F 57.7 °F 97% 30.09 in 10.0 mi Calm Calm - N/A   Overcast
5:37 AM 58.5 °F 57.6 °F 97% 30.08 in 10.0 mi Calm Calm - N/A   Overcast
5:55 AM 58.6 °F 57.7 °F 97% 30.08 in 10.0 mi Calm Calm - N/A   Overcast
5:56 AM 58.6 °F 57.7 °F 97% 30.08 in 10.0 mi Calm Calm - N/A   Overcast
6:15 AM 59.0 °F 58.1 °F 97% 30.08 in 10.0 mi Calm Calm - N/A   Overcast
6:38 AM 59.9 °F 59.0 °F 97% 30.08 in 10.0 mi SSE 3.5 mph - N/A   Overcast
6:55 AM 63.5 °F 62.4 °F 96% 30.08 in 10.0 mi SW 4.6 mph - N/A   Overcast
6:56 AM 63.9 °F 62.4 °F 95% 30.08 in 10.0 mi SW 5.8 mph - N/A   Overcast
7:15 AM 65.3 °F 61.0 °F 86% 30.08 in 10.0 mi SW 8.1 mph - N/A   Overcast
7:16 AM 65.3 °F 60.8 °F 85% 30.08 in 10.0 mi SW 8.1 mph - N/A   Overcast
7:38 AM 65.3 °F 60.4 °F 84% 30.09 in 10.0 mi SW 6.9 mph - N/A   Overcast
7:56 AM 65.5 °F 60.8 °F 85% 30.09 in 10.0 mi SW 8.1 mph - N/A   Overcast
8:15 AM 65.8 °F 60.8 °F 84% 30.09 in 10.0 mi SW 5.8 mph - N/A   Overcast
8:16 AM 65.8 °F 60.8 °F 84% 30.09 in 10.0 mi SW 4.6 mph - N/A   Overcast
8:38 AM 66.2 °F 60.8 °F 83% 30.09 in 10.0 mi SW 6.9 mph - N/A   Overcast
8:57 AM 65.8 °F 60.8 °F 84% 30.09 in 10.0 mi South 5.8 mph - N/A   Overcast
9:15 AM 65.7 °F 60.8 °F 84% 30.10 in 10.0 mi SW 4.6 mph - N/A   Overcast
9:35 AM 66.0 °F 61.3 °F 85% 30.10 in 10.0 mi SW 5.8 mph - N/A   Mostly Cloudy
9:40 AM 66.2 °F 61.3 °F 84% 30.09 in 10.0 mi SW 8.1 mph - N/A   Mostly Cloudy
9:57 AM 66.4 °F 61.7 °F 85% 30.10 in 10.0 mi SW 6.9 mph - N/A   Overcast
10:15 AM 67.1 °F 61.9 °F 83% 30.09 in 10.0 mi SW 10.4 mph 16.1 mph N/A   Overcast
10:16 AM 67.1 °F 61.9 °F 83% 30.09 in 10.0 mi SW 12.7 mph 16.1 mph N/A   Overcast
10:35 AM 67.3 °F 62.4 °F 84% 30.09 in 10.0 mi SW 10.4 mph - N/A   Mostly Cloudy
10:36 AM 67.3 °F 62.4 °F 84% 30.09 in 10.0 mi SW 9.2 mph - N/A   Mostly Cloudy
10:58 AM 68.2 °F 62.6 °F 82% 30.09 in 10.0 mi SW 9.2 mph 19.6 mph N/A   Clear
11:16 AM 69.3 °F 62.6 °F 79% 30.09 in 10.0 mi WSW 8.1 mph 19.6 mph N/A   Clear
11:35 AM 69.1 °F 62.4 °F 79% 30.09 in 10.0 mi SW 10.4 mph 18.4 mph N/A   Clear
11:36 AM 69.1 °F 62.4 °F 79% 30.09 in 10.0 mi SSW 10.4 mph 18.4 mph N/A   Clear
11:55 AM 68.9 °F 62.6 °F 80% 30.08 in 10.0 mi SW 8.1 mph - N/A   Clear
12:00 PM 69.1 °F 62.6 °F 80% 30.08 in 10.0 mi SW 6.9 mph - N/A   Clear
12:16 PM 70.2 °F 63.1 °F 78% 30.08 in 10.0 mi SW 10.4 mph 18.4 mph N/A   Scattered Clouds
12:35 PM 70.0 °F 63.1 °F 79% 30.08 in 10.0 mi SW 10.4 mph - N/A   Overcast
12:36 PM 70.0 °F 63.0 °F 78% 30.08 in 10.0 mi SW 9.2 mph - N/A   Overcast
12:55 PM 70.0 °F 63.5 °F 80% 30.08 in 10.0 mi WSW 9.2 mph - N/A   Overcast
1:16 PM 68.9 °F 63.1 °F 82% 30.08 in 10.0 mi SW 12.7 mph 18.4 mph N/A   Overcast
1:35 PM 68.0 °F 63.1 °F 84% 30.08 in 10.0 mi WSW 10.4 mph - N/A   Overcast
1:36 PM 68.0 °F 63.0 °F 84% 30.08 in 10.0 mi WSW 8.1 mph - N/A   Overcast
1:55 PM 68.0 °F 63.3 °F 85% 30.07 in 10.0 mi SW 3.5 mph - N/A   Overcast
2:17 PM 68.2 °F 63.0 °F 83% 30.07 in 10.0 mi South 4.6 mph - N/A   Overcast
2:35 PM 68.2 °F 63.0 °F 83% 30.06 in 10.0 mi SW 5.8 mph - N/A   Overcast
2:36 PM 68.2 °F 63.0 °F 83% 30.06 in 10.0 mi SW 4.6 mph - N/A   Overcast
2:55 PM 68.0 °F 63.0 °F 84% 30.06 in 10.0 mi SSE 4.6 mph - N/A   Overcast
2:56 PM 68.2 °F 63.0 °F 83% 30.06 in 10.0 mi South 4.6 mph - N/A   Overcast
3:55 PM 68.4 °F 63.3 °F 84% 30.05 in 10.0 mi SSW 5.8 mph - N/A   Overcast
4:19 PM 68.0 °F 63.3 °F 85% 30.04 in 10.0 mi ESE 5.8 mph - N/A   Overcast
4:36 PM 68.0 °F 63.3 °F 85% 30.03 in 10.0 mi SE 6.9 mph - N/A   Overcast
4:55 PM 68.2 °F 63.3 °F 84% 30.03 in 10.0 mi SE 4.6 mph - N/A   Overcast
4:56 PM 68.2 °F 63.5 °F 85% 30.03 in 10.0 mi SSE 4.6 mph - N/A   Overcast
5:15 PM 68.5 °F 63.7 °F 84% 30.04 in 10.0 mi SSE 6.9 mph - N/A   Overcast
5:20 PM 68.4 °F 63.5 °F 84% 30.04 in 10.0 mi SE 5.8 mph - N/A   Overcast
5:37 PM 68.4 °F 63.5 °F 84% 30.03 in 10.0 mi SE 4.6 mph - N/A   Overcast
5:55 PM 68.5 °F 63.7 °F 84% 30.04 in 10.0 mi SE 6.9 mph - N/A   Overcast
5:56 PM 68.5 °F 63.7 °F 84% 30.04 in 10.0 mi ESE 5.8 mph - N/A   Overcast
6:15 PM 68.2 °F 63.7 °F 85% 30.04 in 7.0 mi SE 5.8 mph - N/A   Overcast
6:16 PM 68.2 °F 63.7 °F 85% 30.04 in 7.0 mi SE 5.8 mph - N/A   Overcast
6:38 PM 67.5 °F 64.0 °F 89% 30.04 in 7.0 mi ESE 5.8 mph - N/A   Overcast
6:56 PM 67.1 °F 64.4 °F 91% 30.04 in 7.0 mi ESE 5.8 mph - N/A   Overcast
7:15 PM 67.5 °F 64.6 °F 90% 30.04 in 7.0 mi ESE 5.8 mph - N/A   Overcast
7:16 PM 67.5 °F 64.6 °F 90% 30.04 in 7.0 mi ESE 5.8 mph - N/A   Overcast
7:35 PM 67.1 °F 64.6 °F 92% 30.05 in 7.0 mi SE 5.8 mph - N/A   Overcast
7:57 PM 66.7 °F 64.4 °F 92% 30.05 in 7.0 mi ESE 5.8 mph - N/A   Overcast
8:15 PM 66.6 °F 64.6 °F 93% 30.05 in 7.0 mi ESE 5.8 mph - N/A   Overcast
8:35 PM 66.4 °F 64.6 °F 94% 30.05 in 7.0 mi SE 5.8 mph - N/A   Overcast
8:39 PM 66.4 °F 64.6 °F 94% 30.05 in 7.0 mi SSE 3.5 mph - N/A   Overcast
8:58 PM 66.2 °F 64.4 °F 94% 30.05 in 7.0 mi South 3.5 mph - N/A   Overcast
9:15 PM 65.8 °F 64.4 °F 95% 30.05 in 7.0 mi Calm Calm - N/A   Overcast
9:16 PM 65.8 °F 64.4 °F 95% 30.05 in 7.0 mi Calm Calm - N/A   Overcast
9:35 PM 65.8 °F 64.4 °F 95% 30.06 in 7.0 mi Calm Calm - N/A   Overcast
9:36 PM 65.8 °F 64.4 °F 95% 30.06 in 5.0 mi Calm Calm - N/A   Overcast
9:58 PM 65.5 °F 64.2 °F 96% 30.05 in 5.0 mi SE 5.8 mph - N/A   Overcast
10:16 PM 65.5 °F 64.4 °F 96% 30.05 in 5.0 mi SSE 3.5 mph - N/A   Overcast
10:36 PM 65.3 °F 64.0 °F 96% 30.05 in 5.0 mi SSW 6.9 mph - N/A   Overcast
10:55 PM 64.2 °F 63.1 °F 96% 30.05 in 3.0 mi SW 3.5 mph - N/A   Scattered Clouds
11:17 PM 64.0 °F 63.0 °F 96% 30.05 in 2.5 mi WNW 4.6 mph - N/A   Mostly Cloudy
11:35 PM 62.8 °F 61.9 °F 97% 30.06 in 2.5 mi WNW 3.5 mph - N/A   Overcast
11:55 PM 63.5 °F 62.8 °F 97% 30.06 in 3.0 mi NNE 4.6 mph - N/A   Overcast
11:56 PM 63.7 °F 62.8 °F 97% 30.06 in 3.0 mi NE 4.6 mph - N/A   Overcast